Forks, WA

7:30 PM PST on February 19, 2017 (GMT -0800)
Quillayute

Weather History for KUIL - December, 2012

Change the Weather History Date:

Monday, December 31, 2012

  Actual Average Record
Temperature  
Mean Temperature 37 °F 40 °F  
Max Temperature 41 °F 46 °F 53 °F (1979)
Min Temperature 33 °F 35 °F 9 °F (1978)
Degree Days  
Heating Degree Days 28 24  
Month to date heating degree days 766  
Since 1 July heating degree days 2478  
Cooling Degree Days 0 0  
Month to date cooling degree days 0  
Year to date cooling degree days 19  
Moisture  
Dew Point 36 °F    
Average Humidity 95    
Maximum Humidity 100    
Minimum Humidity 87    
Precipitation  
Precipitation 0.23 in 0.41 in 1.39 in (1996)
Month to date precipitation 12.99  
Year to date precipitation 99.54  
Sea Level Pressure  
Sea Level Pressure 30.31 in    
Wind  
Wind Speed 3 mph (ENE)    
Max Wind Speed 9 mph    
Max Gust Speed 13 mph    
Visibility 4 miles    
Events Rain    
T = Trace of Precipitation, MM = Missing Value Source: NWS Daily Summary

Daily Weather History Graph

Daily Weather History Graph

Search for Another Location

Airport or City:

Trip Planner

Search our weather history database for the weather conditions in past years. The results will help you decide how hot, cold, wet, or windy it might be!

Date:

Astronomy

Dec. 31, 2012 Rise Set
Actual Time 8:07 AM PST 4:35 PM PST
Civil Twilight 7:31 AM PST 5:11 PM PST
Nautical Twilight 6:52 AM PST 5:51 PM PST
Astronomical Twilight 6:14 AM PST 6:28 PM PST
Moon 8:29 PM PST (12/31) 9:36 AM PST (12/31)
Length of Visible Light 9h 39m
Length of Day
8h 27m
Waning Gibbous, 89% of the Moon is Illuminated
Dec 31
Waning Gibbous
Jan 4
Last Quarter
Jan 11
New
Jan 18
First Quarter
Jan 26
Full

Hourly Weather History & Observations

Time (PST) Temp. Windchill Dew Point Humidity Pressure Visibility Wind Dir Wind Speed Gust Speed Precip Events Conditions
12:53 AM 36.0 °F 32.1 °F 34.0 °F 93% 30.25 in 6.0 mi East 4.6 mph - N/A   Overcast
1:53 AM 36.0 °F 32.1 °F 35.1 °F 97% 30.25 in 6.0 mi ENE 4.6 mph - N/A   Overcast
2:53 AM 36.0 °F 33.3 °F 35.1 °F 97% 30.25 in 6.0 mi East 3.5 mph - N/A   Overcast
3:53 AM 37.0 °F 34.5 °F 35.1 °F 93% 30.23 in 6.0 mi East 3.5 mph - N/A   Overcast
4:53 AM 37.0 °F - 35.1 °F 93% 30.22 in 6.0 mi Calm Calm - N/A   Overcast
5:53 AM 37.0 °F - 35.1 °F 93% 30.24 in 6.0 mi Calm Calm - N/A   Overcast
6:53 AM 37.0 °F 31.6 °F 35.1 °F 93% 30.24 in 6.0 mi East 6.9 mph - N/A   Overcast
7:53 AM 37.0 °F 33.3 °F 36.0 °F 96% 30.25 in 5.0 mi East 4.6 mph - 0.01 in Rain Light Rain
8:13 AM 37.4 °F 32.8 °F 35.6 °F 93% 30.25 in 2.5 mi East 5.8 mph - 0.02 in Rain Light Rain
8:20 AM 37.4 °F 32.8 °F 35.6 °F 93% 30.25 in 3.0 mi East 5.8 mph - 0.02 in Rain Light Rain
8:53 AM 37.0 °F 31.6 °F 36.0 °F 96% 30.27 in 2.5 mi ENE 6.9 mph - 0.04 in Rain Light Rain
9:29 AM 37.4 °F 33.8 °F 35.6 °F 93% 30.27 in 2.5 mi NE 4.6 mph - 0.04 in Rain Light Rain
9:50 AM 37.4 °F 34.9 °F 37.4 °F 100% 30.28 in 2.0 mi NNE 3.5 mph - 0.06 in Rain Light Rain
9:53 AM 37.9 °F - 37.0 °F 97% 30.29 in 2.0 mi Calm Calm - 0.06 in Rain Light Rain
10:05 AM 37.4 °F - 37.4 °F 100% 30.28 in 2.0 mi Calm Calm - 0.01 in Rain Light Rain
10:12 AM 37.4 °F - 37.4 °F 100% 30.29 in 1.8 mi Calm Calm - 0.01 in Rain Light Rain
10:53 AM 37.9 °F - 37.0 °F 97% 30.31 in 1.8 mi Calm Calm - 0.06 in Rain Light Rain
11:25 AM 37.4 °F 34.9 °F 37.4 °F 100% 30.30 in 2.0 mi East 3.5 mph - 0.03 in Rain Light Rain
11:53 AM 37.9 °F - 37.0 °F 97% 30.30 in 2.5 mi Calm Calm - 0.05 in Rain Light Rain
12:05 PM 37.4 °F 34.9 °F 37.4 °F 100% 30.28 in 3.0 mi ESE 3.5 mph - 0.01 in Rain Light Rain
12:18 PM 37.4 °F 34.9 °F 37.4 °F 100% 30.28 in 4.0 mi ENE 3.5 mph - 0.01 in Rain Light Rain
12:53 PM 39.0 °F 35.7 °F 37.0 °F 93% 30.28 in 5.0 mi NE 4.6 mph - 0.01 in   Mostly Cloudy
1:53 PM 39.9 °F 36.7 °F 37.9 °F 93% 30.28 in 5.0 mi ENE 4.6 mph - N/A   Overcast
2:22 PM 41.0 °F - 37.4 °F 87% 30.29 in 5.0 mi Calm Calm - N/A   Overcast
2:45 PM 41.0 °F - 39.2 °F 93% 30.30 in 5.0 mi Calm Calm - N/A   Overcast
2:53 PM 41.0 °F 39.0 °F 39.0 °F 93% 30.31 in 5.0 mi East 3.5 mph - N/A   Overcast
3:14 PM 39.2 °F 34.2 °F 37.4 °F 93% 30.32 in 5.0 mi ENE 6.9 mph - N/A   Overcast
3:22 PM 39.2 °F 35.0 °F 37.4 °F 93% 30.32 in 5.0 mi NE 5.8 mph - N/A   Overcast
3:35 PM 39.2 °F 34.2 °F 37.4 °F 93% 30.32 in 5.0 mi NE 6.9 mph - N/A   Overcast
3:53 PM 39.9 °F 34.5 °F 37.9 °F 93% 30.33 in 5.0 mi NNE 8.1 mph - N/A   Overcast
4:53 PM 37.9 °F 33.5 °F 36.0 °F 93% 30.35 in 5.0 mi NNE 5.8 mph - N/A   Scattered Clouds
5:53 PM 36.0 °F - 34.0 °F 93% 30.35 in 6.0 mi Calm Calm - N/A   Clear
6:53 PM 34.0 °F - 33.1 °F 96% 30.37 in 5.0 mi Calm Calm - N/A   Scattered Clouds
7:19 PM 35.6 °F 31.7 °F 33.8 °F 93% 30.36 in 5.0 mi ENE 4.6 mph - N/A   Mostly Cloudy
7:50 PM 35.6 °F - 33.8 °F 93% 30.37 in 5.0 mi Calm Calm - N/A   Overcast
7:53 PM 35.1 °F 32.2 °F 34.0 °F 96% 30.38 in 5.0 mi NNE 3.5 mph - N/A   Overcast
8:53 PM 36.0 °F 31.1 °F 35.1 °F 97% 30.39 in 5.0 mi NE 5.8 mph - N/A   Overcast
9:46 PM 35.6 °F - 35.6 °F 100% 30.40 in 6.0 mi Calm Calm - N/A   Overcast
9:53 PM 37.0 °F - 35.1 °F 93% 30.41 in 6.0 mi Calm Calm - N/A   Overcast
10:53 PM 37.0 °F 33.3 °F 35.1 °F 93% 30.43 in 6.0 mi ESE 4.6 mph - N/A   Overcast
11:53 PM 37.0 °F - 36.0 °F 96% 30.43 in 6.0 mi Calm Calm - N/A   Overcast